AP893 Weather Reports


Display with metric or nautical units.
time (UTC)temp
F
wind
direction
speed
MPH
gust
MPH
rain 1hr
in
rain 24hr
in
rain mn
in
humidity
%
barometer
mb
20260905102010 57 227 0.0 0.0 0.00 0.00 0.00 67 1017.4
20260905101010 57 227 0.0 0.0 0.00 0.00 0.00 67 1017.4
20260905100010 57 227 0.0 0.0 0.00 0.00 0.00 66 1017.4
20260905095010 57 227 0.0 0.0 0.00 0.00 0.00 66 1017.5
20260905094010 57 227 0.0 0.0 0.00 0.00 0.00 66 1017.5
20260905093010 57 227 0.0 0.0 0.00 0.00 0.00 66 1017.5
20260905092010 57 227 0.0 0.0 0.00 0.00 0.00 66 1017.7
20260905091010 57 227 0.0 0.0 0.00 0.00 0.00 67 1017.7
20260905090010 57 227 0.0 0.0 0.00 0.00 0.00 67 1017.8
20260905085010 57 227 0.0 0.0 0.00 0.00 0.00 66 1017.8
20260905084010 57 227 0.0 0.0 0.00 0.00 0.00 66 1017.9
20260905083010 57 227 0.0 0.0 0.00 0.00 0.00 65 1017.9
20260905082010 57 227 0.0 0.0 0.00 0.00 0.00 65 1017.9
20260905081009 58 227 0.0 0.0 0.00 0.00 0.00 65 1017.9
20260905080009 58 227 0.0 0.0 0.00 0.00 0.00 65 1018.0
20260905074010 57 227 0.0 0.0 0.00 0.00 0.00 65 1018.0
20260905073010 57 227 0.0 0.0 0.00 0.00 0.00 66 1017.9
20260905071009 57 227 0.0 0.0 0.00 0.00 0.00 67 1017.9
20260905065009 58 227 0.0 0.0 0.00 0.00 0.00 65 1017.8
20260905063009 58 227 0.0 0.0 0.00 0.00 0.00 64 1017.8
20260905062009 58 227 0.0 0.0 0.00 0.00 0.00 63 1017.9
20260905061010 59 227 0.0 0.0 0.00 0.00 0.00 61 1017.8
20260905060009 60 227 0.0 0.0 0.00 0.00 0.00 60 1017.9
20260905055010 60 227 0.0 0.0 0.00 0.00 0.00 59 1017.9
20260905054010 60 227 0.0 0.0 0.00 0.00 0.00 59 1017.9
20260905053009 60 227 0.0 0.0 0.00 0.00 0.00 58 1018.0
20260905052010 60 227 0.0 0.0 0.00 0.00 0.00 58 1018.1
20260905051010 60 227 0.0 0.0 0.00 0.00 0.00 58 1018.2
20260905045010 61 227 0.0 0.0 0.00 0.00 0.00 57 1018.2
20260905044010 61 227 0.0 0.0 0.00 0.00 0.00 57 1018.1
20260905042009 61 227 0.0 0.0 0.00 0.00 0.00 56 1018.0
20260905040010 61 227 0.0 0.0 0.00 0.00 0.00 53 1016.5
20260905035009 62 227 0.0 0.0 0.00 0.00 0.00 52 1017.8
20260905034010 62 227 0.0 0.0 0.00 0.00 0.00 50 1017.6
20260905033009 63 227 0.0 0.0 0.00 0.00 0.00 49 1017.4
20260905030010 65 227 0.0 0.0 0.00 0.00 0.00 46 1017.3
20260905025009 66 227 0.0 0.0 0.00 0.00 0.00 45 1017.3
20260905023009 67 227 0.0 0.0 0.00 0.00 0.00 43 1017.3
20260905022010 68 227 0.0 0.0 0.00 0.00 0.00 42 1017.3
20260905021010 68 227 0.0 0.0 0.00 0.00 0.00 42 1017.3
20260905020009 69 227 0.0 5.0 0.00 0.00 0.00 41 1017.2
20260905015010 69 357 0.0 0.0 0.00 0.00 0.00 40 1017.3
20260905014009 69 357 0.0 9.0 0.00 0.00 0.00 39 1017.3
20260905013009 70 319 0.0 6.0 0.00 0.00 0.00 38 1017.2
20260905012010 70 318 2.0 6.0 0.00 0.00 0.00 38 1017.2
20260905005009 73 24 1.0 7.0 0.00 0.00 0.00 34 1017.1
20260905004009 74 275 0.0 8.0 0.00 0.00 0.00 32 1017.2
20260905003010 74 282 1.0 8.0 0.00 0.00 0.00 30 1017.2
20260905002009 75 276 1.0 7.0 0.00 0.00 0.00 29 1017.2
20260905001009 75 224 1.0 8.0 0.00 0.00 0.00 28 1017.3
20260905000009 75 247 0.0 9.0 0.00 0.00 0.00 28 1017.3
20260904233010 76 272 2.0 9.0 0.00 0.00 0.00 28 1017.3
20260904231010 76 259 5.0 10.0 0.00 0.00 0.00 32 1017.2
20260904230010 75 288 3.0 8.0 0.00 0.00 0.00 33 1017.2
20260904225010 74 201 3.0 12.0 0.00 0.00 0.00 35 1017.2
20260904223010 74 356 1.0 9.0 0.00 0.00 0.00 36 1017.4
20260904222010 75 53 2.0 8.0 0.00 0.00 0.00 38 1016.0
20260904220010 76 257 3.0 7.0 0.00 0.00 0.00 37 1017.4
20260904215010 75 121 3.0 8.0 0.00 0.00 0.00 38 1017.4
20260904214010 75 278 3.0 12.0 0.00 0.00 0.00 38 1017.4
20260904213009 74 191 1.0 12.0 0.00 0.00 0.00 40 1017.4
20260904212009 73 171 1.0 10.0 0.00 0.00 0.00 41 1017.4
20260904205010 74 214 1.0 12.0 0.00 0.00 0.00 44 1017.4
20260904204010 73 299 3.0 9.0 0.00 0.00 0.00 45 1017.3
20260904202011 72 250 3.0 12.0 0.00 0.00 0.00 48 1017.3
20260904201010 71 198 0.0 12.0 0.00 0.00 0.00 51 1017.2
20260904200011 70 352 3.0 12.0 0.00 0.00 0.00 54 1017.2
20260904195009 69 263 4.0 9.0 0.00 0.00 0.00 59 1017.2
20260904194010 68 346 4.0 13.0 0.00 0.00 0.00 61 1017.2
20260904193010 68 350 3.0 10.0 0.00 0.00 0.00 63 1017.3
20260904192010 66 332 4.0 13.0 0.00 0.00 0.00 66 1017.4
20260904191009 66 2 3.0 10.0 0.00 0.00 0.00 67 1017.4
20260904190010 66 343 3.0 8.0 0.00 0.00 0.00 69 1017.7
20260904185009 66 0 6.0 14.0 0.00 0.00 0.00 69 1017.5
20260904184009 66 310 2.0 12.0 0.00 0.00 0.00 71 1017.4
20260904183012 66 342 5.0 9.0 0.00 0.00 0.00 72 1017.5
20260904182010 65 12 3.0 6.0 0.00 0.00 0.00 74 1017.5
20260904181010 65 343 1.0 10.0 0.00 0.00 0.00 76 1017.5
20260904180009 65 8 5.0 8.0 0.00 0.00 0.00 77 1017.4
20260904175010 64 280 0.0 5.0 0.00 0.00 0.00 81 1017.4
20260904174009 63 318 0.0 6.0 0.00 0.00 0.00 82 1017.3
20260904173009 63 347 3.0 7.0 0.00 0.00 0.00 82 1017.3
20260904171010 62 274 1.0 3.0 0.00 0.00 0.00 90 1017.2
20260904170010 61 0 2.0 7.0 0.00 0.00 0.00 92 1017.1
20260904165009 60 355 3.0 8.0 0.00 0.00 0.00 94 1017.1
20260904164010 59 349 6.0 9.0 0.00 0.00 0.00 94 1017.0
20260904162010 60 4 3.0 9.0 0.00 0.00 0.00 92 1016.9
20260904161010 61 356 1.0 7.0 0.00 0.00 0.00 92 1016.7
20260904160009 60 357 2.0 7.0 0.00 0.00 0.00 92 1016.8
20260904155010 60 314 1.0 6.0 0.00 0.00 0.00 92 1016.7
20260904154009 60 3 1.0 5.0 0.00 0.00 0.00 93 1016.7
20260904153010 60 1 0.0 3.0 0.00 0.00 0.00 93 1016.6
20260904152010 60 0 1.0 7.0 0.00 0.00 0.00 93 1016.7
20260904151009 60 6 1.0 7.0 0.00 0.00 0.00 93 1016.6
20260904150010 60 329 0.0 0.0 0.00 0.00 0.00 93 1016.4
20260904145010 59 329 0.0 0.0 0.00 0.00 0.00 93 1016.3
20260904144009 59 329 0.0 0.0 0.00 0.00 0.00 94 1016.2
20260904143010 59 329 0.0 0.0 0.00 0.00 0.00 93 1016.1
20260904142009 59 329 0.0 0.0 0.00 0.04 0.00 93 1016.0
20260904141010 59 329 0.0 2.0 0.00 0.04 0.00 93 1016.0
20260904140009 59 322 0.0 0.0 0.00 0.04 0.00 92 1015.9
20260904135010 59 322 0.0 0.0 0.00 0.04 0.00 91 1015.8
20260904132010 60 322 0.0 0.0 0.00 0.04 0.00 90 1015.6
20260904131009 60 322 0.0 0.0 0.00 0.04 0.00 89 1015.6
20260904130010 59 322 0.0 2.0 0.00 0.04 0.00 89 1015.5
20260904125009 60 16 0.0 0.0 0.00 0.04 0.00 89 1015.3
20260904124010 60 16 0.0 0.0 0.00 0.04 0.00 89 1015.2
20260904123009 60 16 0.0 0.0 0.00 0.04 0.00 89 1015.1
20260904122009 60 16 0.0 0.0 0.00 0.04 0.00 89 1015.1
20260904121009 60 16 0.0 0.0 0.00 0.04 0.00 89 1015.1
20260904115009 59 16 0.0 0.0 0.00 0.04 0.00 90 1015.2
20260904113009 59 16 0.0 0.0 0.00 0.04 0.00 90 1015.2
20260904112009 59 16 0.0 0.0 0.00 0.04 0.00 90 1015.3
20260904111009 59 16 0.0 0.0 0.00 0.04 0.00 90 1015.2
20260904110010 59 16 0.0 0.0 0.00 0.04 0.00 90 1015.2
20260904105010 59 16 0.0 0.0 0.00 0.04 0.00 90 1015.1
20260904104010 59 16 0.0 0.0 0.00 0.04 0.00 89 1015.0
20260904103010 59 16 0.0 0.0 0.00 0.04 0.00 89 1015.0